www.pogodaiklimat.ru

Погода и климат >> Архив погоды >> Аргентина >> Пилар


ПОГОДА в Пиларе

  • Прогноз погоды в Пиларе
  • Монитор погоды в Пиларе

АРХИВ ПОГОДЫ в Пиларе

Время (UTC), дата Ветер
(напр.,м/с)
 
Видим.   Явления Облачность Т
(С)
Тd
(С)
f
(%)
Тe
(С)
Тes
(С)
Комфортность P
(гПа)
Po
(гПа)
Тmin
(С)
Tmax
(С)
R
(мм)
R24
(мм)
S
(см)
09 19.03 ЮЗ 1 10 км ясно +16.0 +15.0 94 +17 +17 1011.1 972.4
12 19.03 Ю 6 10 км 1/0
[Ac cast]
+16.3 +13.3 82 +15 +16 1016.1 976.8 +14.2 +20.3
15 19.03 Ю 5 6000 м слаб. морось 10/10 360 м
[St]
+14.7 +14.0 96 +13 +13 1019.3 979.7
18 19.03 Ю 5 10 км {морось} 10/10 600 м
[Sc]
+16.0 +12.2 78 +15 +15 1019.0 979.4 0.0
21 19.03 Ю 3 10 км 10/10 600 м
[Sc]
+15.6 +12.2 80 +15 +15 1020.4 980.6
00 20.03 Ю 3 6000 м слаб. дождь 10/4 240 м
[St As op]
+14.7 +12.9 89 +14 +14 1023.1 983.2 +14.2 +16.6 0.0
03 20.03 Ю 2 10 км в посл. час дождь 10/6 360 м
[St Ac As]
+14.2 +12.8 91 +14 +14 1024.7 984.6
06 20.03 Ю 1 10 км {дождь} 9/4 600 м
[Sc Ac As]
+14.1 +12.5 90 +15 +15 1024.1 984.1 0.0
09 20.03 Ю 3 10 км 4/0
[Ac As]
+11.4 +10.2 92 +10 +10 1024.3 984.1
12 20.03 Ю 3 10 км 4/0
[Ac und Cc]
+11.0 +9.2 89 +9 +11 1026.1 985.7 +9.5 +14.7 0.0
15 20.03 Ю 3 10 км 3/1 600 м
[Cu hum Ac und]
+16.5 +7.6 56 +16 +25 1025.8 985.8
18 20.03 В 1 10 км 9/8 750 м
[Cu med, cong Cs]
+18.6 +9.0 54 +20 +23 1024.1 984.2
21 20.03 ЮВ 4 10 км 10/10 750 м
[Sc]
+17.8 +9.5 58 +18 +18 1023.4 983.4
00 21.03 штиль 0 10 км 6/0
[Ac cast]
+15.0 +10.5 74 +15 +15 1024.8 984.5 +11.0 +19.5
03 21.03 штиль 0 10 км 8/0
[Ac und]
+12.0 +9.9 87 +11 +11 1025.4 985.2
06 21.03 штиль 0 10 км 4/0
[Cs]
+10.4 +9.2 92 +10 +10 1024.7 984.6
09 21.03 штиль 0 10 км 5/0
[Ac cast Cs]
+9.8 +8.4 91 +9 +9 1023.5 983.3
12 21.03 штиль 0 8000 м дымка 8/0
[Ac As Cs]
+12.2 +10.1 87 +12 +14 1023.7 983.4 +9.0 +15.0
15 21.03 С 5 10 км 6/3 600 м
[Cu hum Ac und]
+17.4 +10.8 65 +17 +20 1023.1 983.0
18 21.03 С 4 10 км 6/5 600 м
[Cu hum Ac As]
+19.6 +10.7 56 +21 +24 комфорт 1019.4 979.6
21 21.03 С 5 10 км 4/0
[Ac und Ci]
+18.5 +10.6 60 +19 +19 1017.9 978.0
00 22.03 С 2 10 км 6/0
[Ci]
+14.5 +11.7 83 +14 +14 1018.3 978.1 +11.8 +20.5
03 22.03 С 3 10 км 3/0
[Ci]
+13.8 +11.0 83 +13 +13 1017.8 978.1
06 22.03 С 3 10 км 3/0
[Ci]
+12.9 +11.0 88 +11 +11 1017.6 978.0
12 22.03 С 3 10 км ясно +14.2 +11.8 85 +13 +16 1019.4 979.4 +9.5 +14.5
15 22.03 С 5 10 км ясно +20.2 +12.9 63 +22 +29 комфорт 1018.8 979.3
18 22.03 С 4 10 км 6/6 750 м
[Sc]
+23.4 +14.8 58 +27 +31 душно 1016.6 977.3
21 22.03 С 3 10 км 3/3 750 м
[Sc]
+23.0 +15.0 61 +27 +28 душно 1016.0 976.5
00 23.03 С 2 10 км ясно +18.2 +15.0 82 +19 +19 1017.1 977.4 +14.2 +23.9
03 23.03 С 3 10 км ясно +15.6 +13.7 88 +15 +15 1017.7 978.2
06 23.03 С 2 10 км ясно +13.6 +12.9 96 +13 +13 1016.2 977.0
09 23.03 СВ 1 10 км ясно +12.5 +12.1 97 +12 +12 1015.2 975.8
12 23.03 С 2 10 км 1/0
[Cs]
+15.3 +13.9 91 +15 +18 1016.1 976.6 +11.4 +18.2
15 23.03 С 6 10 км 3/1 540 м
[Cu hum Cs]
+23.7 +17.3 67 +28 +33 душно 1014.4 975.4
18 23.03 С 5 10 км 1/1 600 м
[Cu hum]
+27.4 +17.3 54 +31 +37 душно 1012.1 973.3
21 23.03 С 3 10 км ясно +26.8 +17.7 57 +31 +32 душно 1011.5 972.6
00 24.03 С 2 10 км ясно +20.8 +17.4 81 +25 +25 комфорт 1013.1 973.8 +15.3 +27.8
03 24.03 С 2 10 км 1/0
[Ci fib]
+18.6 +17.0 90 +20 +20 1014.8 976.0
06 24.03 Ю 1 10 км ясно +15.8 +14.6 93 +16 +16 1015.6 976.8
09 24.03 Ю 2 10 км ясно +15.5 +14.3 93 +16 +16 1016.7 977.8
12 24.03 Ю 8 10 км 3/0
[Ac cast Ci]
+15.2 +10.5 74 +13 +14 1021.6 982.1 +14.5 +20.8
15 24.03 Ю 5 10 км ясно +20.1 +7.6 44 +21 +28 комфорт 1022.0 982.6
18 24.03 Ю 7 10 км ясно +23.7 +7.8 36 +24 +27 комфорт 1020.1 980.9
21 24.03 ЮВ 2 10 км 6/6 750 м
[Sc]
+23.9 +9.3 39 +25 +25 комфорт 1018.8 979.6
00 25.03 штиль 0 10 км 1/1 750 м
[Sc]
+18.6 +11.0 61 +19 +19 1019.3 979.7 +15.2 +24.2
03 25.03 Ю 1 10 км 4/1 600 м
[Sc Cs]
+15.6 +10.6 72 +16 +16 1021.0 981.4
06 25.03 штиль 0 10 км 9/3 900 м
[Sc Ac As]
+13.8 +11.0 83 +13 +13 1020.7 981.3
09 25.03 штиль 0 10 км 3/0
[Cs]
+11.1 +9.5 90 +10 +10 1020.5 981.0
12 25.03 ЮЗ 1 10 км 4/0
[Ac As Ci]
+14.7 +9.5 71 +15 +18 1021.9 982.2 +9.8 +18.6
15 25.03 В 2 10 км 6/3 600 м
[Cu hum Ac As Ci]
+18.6 +11.0 61 +20 +28 1022.1 982.4
18 25.03 С 3 10 км 10/4 600 м
[Sc Ac As]
+17.6 +12.0 70 +18 +20 1020.8 981.0
21 25.03 З 1 700 м дождь 10/3 240 м
[St As op]
+14.1 +13.6 97 +14 +14 1022.5 982.2
00 26.03 штиль 0 5000 м в посл. час дождь 10/3 150 м
[St As op]
+14.3 +13.8 97 +14 +14 1023.1 983.0 +13.5 +20.6 6
03 26.03 штиль 0 8000 м дымка 10/3 240 м
[St As op]
+14.0 +13.6 97 +14 +14 1023.8 984.0

 

Местоположение метеостанции Пилар (Аргентина): широта -31.66 долгота -63.88 высота над уровнем моря 338 м.

В архиве по умолчанию представлена погода в Пиларе за последнюю неделю. Архивные данные за месяц целиком и за предыдущие месяцы, начиная с января 2011 года, Вы можете получить, выбрав интересующий диапазон дат из раскрывающегося списка и нажав кнопку "Ввод!".


*Определитесь, кто Вы:
робот инопланетянин человек

Внимание! Время в таблицах - всемирное. Для получения местного времени необходимо прибавить поправку, которая равна -3 ч.

Смотрите также архив погоды в соседних городах и на ближайших метеорологических станциях:

Погода в Кордове (Аргентина) (50 км)
Погода в Вилла Долорес (Аргентина) (122 км)
Погода в Рио-Куарто (Аргентина) (163 км)
Погода в Вилла де Мария дель Рио Секо (Аргентина) (197 км)
Погода в Маркос Хуарес (Аргентина) (200 км)
Погода в Вилья Рейнольдс (Аргентина) (270 км)
Погода в Сересе (Аргентина) (271 км)
Погода в Чамикале (Аргентина) (271 км)
Погода в Лабоулайе (Аргентина) (279 км)
Погода в Санта-Фе (Аргентина) (291 км)

Пояснения к столбцам:

Ветер - указаны скорость ветра в м/с - средняя за 10 мин, порывы в срок и между сроками (в фигурных скобках) и направление, откуда дует ветер: С - северный, СВ - северо-восточный, В - восточный, ЮВ - юго-восточный, Ю - южный, ЮЗ - юго-западный, З - западный, СЗ - северо-западный.
Видимость - горизонтальная дальность видимости в метрах или километрах. При видимости от 1 до 10 км при отсутствии осадков обычно наблюдается дымка, при ухудшении видимости до 1 км и менее - туман. В сухую погоду видимость может ухудшаться дымом, пылью или мглою.
Явления - указаны атмосферные явления, наблюдавшиеся в срок или в последний час перед сроком; фигурными скобками обозначены явления, наблюдавшиеся между сроками (за 1-3 часа до срока); квадратными скобками обозначены град или гололедные отложения с указанием их диаметра в мм.
Облачность - указаны через наклонную черту общая и нижняя облачность в баллах и высота нижней границы облаков в метрах; квадратными скобками обозначены формы облаков: Ci - перистые, Cs - перисто-слоистые, Cc - перисто-кучевые, Ac - высококучевые, As - высокослоистые, Sc - слоисто-кучевые, Ns - слоисто-дождевые, Cu - кучевые, Cb - кучево-дождевые. Подробнее классификацию облаков см. в Атласе облаков (PDF).
T - Температура воздуха - температура, измеренная на высоте 2 м над землей.
Td - Температура точки росы - температура, при понижении до которой содержащийся в воздухе водяной пар достигнет насыщения.
f - Относительная влажность воздуха - влажноcть воздуха, измеренная на высоте 2 м над землей.
Te - Эффективная температура - температура, которую ощущает одетый по сезону человек в тени. Характеристика душности погоды. При расчете учитывается влияние влажности воздуха и скорости ветра на теплоощущения человека.
Tes - Эффективная температура на солнце - температура, которую ощущает человек, с поправкой на солнечный нагрев. Характеристика знойности погоды. Зависит от высоты солнца над горизонтом, облачности и скорости ветра. Ночью, в пасмурную погоду, а также при ветре 12 м/с и более поправка равна нулю.
P - Атмосферное давление - приведенное к уровню моря атмосферное давление.
Po - Атмосферное давление - измеренное на уровне метеостанции атмосферное давление.
Tmin - Минимальная температура - минимум температуры воздуха на высоте 2 м над землей.
Tmax - Максимальная температура - максимум температуры воздуха на высоте 2 м над землей.
R - Количество осадков - Количество выпавших осадков за период времени, мм. При наведении курсора мыши на число - период времени, за который выпало указанное количество осадков.
R24 - Количество осадков - Количество выпавших осадков за 24 часа, мм.
S - Снежный покров - Высота снежного покрова, см. При наведении курсора мыши на число - состояние снежного покрова и степень покрытия местности в баллах.